Flag for Poland Weather past 2 weeks in Gliwice, Poland

Now
32 °F

Light snow. Ice fog.


Feels Like: 24 °F
Forecast: 17 / 24 °F
Wind: 9 mph from Northwest

Location: Katowice Airport

Current Time: Dec 26, 2014 at 8:18:27 AM

Latest Report: Dec 26, 2014 at 8:00 AM


Visibility: 1 mi

Pressure: 30.04 "Hg

Humidity: 100%

Dew point: 32 °F

Location of GliwiceLocation

Historic Weather in Gliwice — Graph

°F

Gliwice temperature yesterday

Maximum temperature yesterday: 43 °F (at 1:00 AM)
Minimum temperature yesterday: 34 °F (at 8:30 AM)
Average temperature yesterday: 38 °F

Past Weeks' High & Low Weather Summary

 TemperatureHumidityPressure
High52 °F (Dec 19, 11:30 AM)100% (Dec 16, 8:30 AM)30.18 "Hg (Dec 16, 8:30 AM)
Low32 °F (Dec 11, 7:00 AM)46% (Dec 12, 8:00 PM)29.71 "Hg (Dec 12, 5:30 PM)
Average42 °F80%29.91 "Hg
* Reported Dec 11 7:00 AM — Dec 26 7:00 AM, Gliwice, Weather by CustomWeather, © 2014

Note: Actual official high and low records may vary slightly from our data, if they occured in-between our weather recording intervals... More about our weather records

Advertising

Gliwice weather history for previous 24 hours

 ConditionsComfort  
Time TempWeatherWind HumidityBarometerVisibility
7:00 AM
Dec 26
32 °FLight snow. Ice fog.10 mph100%30.01 "Hg1 mi
6:30 AM32 °FLight snow. Ice fog.12 mph100%30.01 "Hg1 mi
6:00 AM32 °FSnow flurries. Passing clouds.9 mph100%30.01 "Hg2 mi
5:30 AM34 °FSnow flurries. Partly cloudy.10 mph87%30.01 "Hg4 mi
5:00 AM36 °FSnow flurries. Partly cloudy.9 mph81%30.01 "Hg4 mi
4:30 AM36 °FSprinkles. Partly cloudy.10 mph81%30.01 "Hg5 mi
3:30 AM36 °FPassing clouds.8 mph81%30.01 "HgN/A
3:00 AM36 °FPassing clouds.10 mph81%30.01 "HgN/A
2:30 AM34 °FPassing clouds.8 mph87%30.01 "HgN/A
2:00 AM36 °FPassing clouds.12 mph81%30.01 "HgN/A
1:30 AM34 °FClear.10 mph87%30.01 "Hg10 mi
1:00 AM34 °FClear.13 mph87%30.01 "Hg10 mi
12:30 AM34 °FClear.12 mph87%30.01 "Hg10 mi
12:00 AM34 °FClear.12 mph87%30.01 "Hg10 mi
11:30 PM
Dec 25
34 °FClear.12 mph87%30.01 "Hg10 mi
11:00 PM34 °FPassing clouds.12 mph87%30.01 "HgN/A
10:30 PM34 °FSprinkles. Partly cloudy.12 mph93%30.01 "Hg5 mi
10:00 PM34 °FSprinkles. Partly cloudy.14 mph93%30.04 "Hg5 mi
9:30 PM36 °FSprinkles. Partly cloudy.15 mph87%30.01 "Hg2 mi
9:00 PM37 °FPassing clouds.13 mph75%30.01 "HgN/A
8:30 PM37 °FPassing clouds.14 mph75%30.01 "HgN/A
8:00 PM37 °FPassing clouds.13 mph70%30.01 "HgN/A
7:30 PM37 °FPassing clouds.10 mph70%30.01 "HgN/A
7:00 PM37 °FPassing clouds.10 mph70%30.01 "HgN/A
6:30 PM39 °FPassing clouds.17 mph65%30.01 "HgN/A
6:00 PM39 °FSprinkles. Partly cloudy.14 mph65%30.01 "HgN/A
5:30 PM39 °FSprinkles. Partly cloudy.14 mph65%30.01 "HgN/A
5:00 PM39 °FPassing clouds.14 mph65%30.01 "HgN/A
4:30 PM39 °FPassing clouds.14 mph65%30.01 "HgN/A
4:00 PM39 °FPassing clouds.13 mph65%30.01 "HgN/A
3:30 PM39 °FPartly sunny.17 mph65%30.01 "HgN/A
3:00 PM39 °FPartly sunny.15 mph70%30.01 "HgN/A
2:30 PM39 °FPartly sunny.13 mph70%30.01 "HgN/A
2:00 PM39 °FPartly sunny.14 mph70%30.01 "HgN/A
1:30 PM39 °FPartly sunny.13 mph75%30.01 "HgN/A
1:00 PM39 °FBroken clouds.12 mph75%30.01 "HgN/A
12:30 PM39 °FLight rain. Broken clouds.14 mph75%30.01 "HgN/A
12:00 PM39 °FBroken clouds.15 mph75%30.01 "HgN/A
11:30 AM39 °FLight rain. Broken clouds.15 mph81%30.01 "HgN/A
11:00 AM39 °FBroken clouds.14 mph81%30.01 "HgN/A
10:30 AM37 °FPassing clouds.12 mph87%30.01 "HgN/A
10:00 AM37 °FPassing clouds.13 mph81%30.01 "HgN/A
9:30 AM37 °FPassing clouds.10 mph87%30.01 "HgN/A
9:00 AM36 °FScattered clouds.9 mph93%29.98 "HgN/A
8:30 AM34 °FPassing clouds.10 mph93%29.98 "HgN/A
8:00 AM36 °FPassing clouds.13 mph93%29.98 "HgN/A
Weather by CustomWeather, © 2014

See weather overviewHow to use our weather pages